Regional Weather Roundup
Issued by NWS Jackson, KY

Home | Current Version | Previous Version | Graphics & Text | Print | Product List | Glossary On
Versions: 1 2 3 4 5 6 7 8 9 10 11 12 13 14 15 16 17 18 19 20 21 22 23 24 25 26 27
000
ASUS43 KJKL 301810
RWRJKL

EAST KENTUCKY HOURLY WEATHER ROUNDUP
NATIONAL WEATHER SERVICE JACKSON KY
200 PM EDT SAT APR 30 2016

NOTE: "FAIR" INDICATES FEW OR NO CLOUDS BELOW 12,000 FEET WITH
NO SIGNIFICANT WEATHER AND/OR OBSTRUCTIONS TO VISIBILITY.

* THESE REPORTS ARE NOT UNDER NWS QUALITY CONTROL AND MAY NOT
  REPORT WEATHER SUCH AS PRECIPITATION AND FOG.

KYZ079-080-083-085-087-088-110-112-115-119-120-301900
...EASTERN KENTUCKY...

CITY           SKY/WX    TMP DP  RH WIND       PRES   REMARKS
JACKSON        LGT RAIN  61  58  90 CALM      30.03F
6HR MIN TEMP:  57; 6HR MAX TEMP:  61; 6HR PCP:  0.04;

LONDON         RAIN      62  58  86 E6        30.02F FOG
6HR MIN TEMP:  60; 6HR MAX TEMP:  63; 6HR PCP: TRACE;

SOMERSET*      RAIN      59  59 100 E6        30.00F
MONTICELLO*    CLOUDY    62  60  93 W6        29.99F
6HR MIN TEMP:  61; 6HR MAX TEMP:  64; 6HR PCP:  0.31;

WILLIAMSBURG*  CLOUDY    59  59 100 E7        30.00F
MIDDLESBORO*   RAIN      64  61  91 W5        30.04R
6HR MIN TEMP:  58; 6HR MAX TEMP:  68; 6HR PCP:  0.07;

HARLAN APT*    CLOUDY    63  59  88 CALM      30.03S
HAZARD APT*    LGT RAIN  63  61  94 CALM      30.04S
BLACK MTN*       N/A     61  54  77 SE1         N/A
PIKE CO APT*   CLOUDY    64  60  88 NW6       30.06R
BIG SANDY APT* DRIZZLE   62  60  92 CALM      30.05R
6HR MIN TEMP:  58; 6HR MAX TEMP:  65;

MOREHEAD APT*  LGT RAIN  59  57  94 VRB3      30.03F
$$

KYZ035-036-041-042-044-050-067-078-099-301900
...CENTRAL KENTUCKY...

CITY           SKY/WX    TMP DP  RH WIND       PRES   REMARKS
MT STERLING*   LGT RAIN  59  59 100 SE6       30.03S
FLEMING/MASON* DRIZZLE   56  55  97 E7        30.02F
DANVILLE*      LGT RAIN  59  59 100 SE5       30.00S
RICHMOND*      CLOUDY    59  57  94 E7        30.00F
LEXINGTON      CLOUDY    61  57  87 SE14      29.98F
6HR MIN TEMP:  59; 6HR MAX TEMP:  61; 6HR PCP:  0.20;

FRANKFORT      CLOUDY    61  58  90 CALM      29.97S
6HR MIN TEMP:  58; 6HR MAX TEMP:  61; 6HR PCP:  0.25;

LOUISVILLE     LGT RAIN  62  59  90 SE14      29.95F FOG
6HR MIN TEMP:  59; 6HR MAX TEMP:  62; 6HR PCP:  0.42;

LEBANON*       CLOUDY    63  59  88 SE3       29.97S
BOWLING GREEN  CLOUDY    68  63  84 E5        29.92F
6HR MIN TEMP:  60; 6HR MAX TEMP:  68; 6HR PCP:  0.24;

$$

KYZ091>093-OHZ055-061-077-WVZ005-015-034-035-042-301900
...SOUTHERN OHIO/WEST VIRGINIA...

CITY           SKY/WX    TMP DP  RH WIND       PRES   REMARKS
COVINGTON      LGT RAIN  56  54  93 E12       29.97F FOG
COLUMBUS       LGT RAIN  53  50  89 CALM      30.08R
DAYTON         LGT RAIN  51  50  96 E12       30.01F FOG
WILMINGTON     LGT RAIN  53  51  93 E6        30.02F FOG
HUNTINGTON     LGT RAIN  59  53  80 N3        30.06R
CHARLESTON     LGT RAIN  64  56  75 NW6       30.03R
PINEVILLE*     CLOUDY    73  49  43 MISG      30.09R
BECKLEY          N/A     63  51  65 SE15G24   30.09R
$$

VAZ002-007-008-TNZ017-027-036-066-071-301900
...SOUTHWEST VIRGINIA/EAST TENNESSEE...

CITY           SKY/WX    TMP DP  RH WIND       PRES   REMARKS
WISE*          CLOUDY    66  48  52 NW6       30.09R
BRISTOL        CLOUDY    76  57  51 CALM      30.00F
MORRISTOWN*    MOCLDY    75  55  50 NE7       29.97F
SEVIERVILLE*   CLEAR     79  57  47 NW6       29.95S
KNOXVILLE      LGT RAIN  73  58  59 NW9       29.98R
OAK RIDGE      LGT RAIN  67  61  81 CALM      30.02R
CROSSVILLE     CLOUDY    72  58  61 VRB7      30.00S
NASHVILLE      CLOUDY    72  62  71 CALM      29.92F
$$

...KEY TO REMARKS...
VSB - VISIBILITY IN MILES
WCI - WIND CHILL INDEX
HX  - HEAT INDEX

$$




USA.gov is the U.S. government's official web portal to all federal, state and local government web resources and services.